VOI5571 MMCN-MMMY

Flight info

Callsign VOI5571
Flight time 1h 23m
Altitude 37000
Route ENATA3 CEN UT49 TETIN DCT SLW SLW1B
Aircraft A20N/M-SDE2E3FGHIRWXY/LB1

Departure

Time 2026-05-04 00:43
Airport Ciudad Obregón International Airport (MMCN)

Arrival

Time 2026-05-04 02:06
Airport Monterrey International Airport (MMMY)
Time Latitude Longitude Altitude Speed Heading
2026-05-04 00:11 27.39810 -109.83389 201 ft 0 kts 92°
2026-05-04 00:34 27.39810 -109.83391 201 ft 2 kts 92°
2026-05-04 00:34 27.39811 -109.83410 211 ft 2 kts 94°
2026-05-04 00:34 27.39812 -109.83428 203 ft 2 kts 96°
2026-05-04 00:35 27.39814 -109.83446 208 ft 2 kts 103°
2026-05-04 00:35 27.39820 -109.83463 214 ft 2 kts 143°
2026-05-04 00:35 27.39833 -109.83468 214 ft 1 kts 181°
2026-05-04 00:35 27.39835 -109.83468 210 ft 0 kts 182°
2026-05-04 00:38 27.39824 -109.83469 212 ft 3 kts 182°
2026-05-04 00:38 27.39789 -109.83470 204 ft 7 kts 182°
2026-05-04 00:39 27.39740 -109.83472 204 ft 7 kts 182°
2026-05-04 00:39 27.39698 -109.83509 209 ft 9 kts 240°
2026-05-04 00:39 27.39667 -109.83577 204 ft 11 kts 242°
2026-05-04 00:39 27.39635 -109.83667 206 ft 13 kts 274°
2026-05-04 00:40 27.39696 -109.83750 200 ft 15 kts 318°
2026-05-04 00:40 27.39780 -109.83835 201 ft 18 kts 317°
2026-05-04 00:40 27.39875 -109.83935 199 ft 20 kts 316°
2026-05-04 00:40 27.39945 -109.83998 199 ft 11 kts 344°
2026-05-04 00:41 27.40032 -109.84008 207 ft 14 kts 332°
2026-05-04 00:41 27.40033 -109.84080 205 ft 8 kts 215°
2026-05-04 00:41 27.39992 -109.84060 201 ft 0 kts 137°
2026-05-04 00:42 27.39987 -109.84055 207 ft 4 kts 137°
2026-05-04 00:42 27.39864 -109.83926 200 ft 56 kts 136°
2026-05-04 00:42 27.39416 -109.83455 198 ft 118 kts 136°
2026-05-04 00:42 27.38701 -109.82743 388 ft 144 kts 140°
2026-05-04 00:43 27.37957 -109.81974 897 ft 147 kts 139°
2026-05-04 00:43 27.37235 -109.81193 1580 ft 140 kts 141°
2026-05-04 00:43 27.36501 -109.80412 2006 ft 152 kts 142°
2026-05-04 00:43 27.35695 -109.79585 2308 ft 170 kts 141°
2026-05-04 00:44 27.34767 -109.78645 2670 ft 189 kts 140°
2026-05-04 00:44 27.33733 -109.77587 3056 ft 212 kts 140°
2026-05-04 00:44 27.32588 -109.76409 3514 ft 235 kts 140°
2026-05-04 00:44 27.31353 -109.75136 4082 ft 255 kts 140°
2026-05-04 00:45 27.30018 -109.73761 4927 ft 263 kts 139°
2026-05-04 00:45 27.28664 -109.72364 5979 ft 261 kts 139°
2026-05-04 00:45 27.27329 -109.70988 7003 ft 263 kts 139°
2026-05-04 00:45 27.26107 -109.69406 7734 ft 276 kts 120°
2026-05-04 00:46 27.25582 -109.67297 8522 ft 289 kts 95°
2026-05-04 00:46 27.25905 -109.65038 9349 ft 299 kts 73°
2026-05-04 00:46 27.26618 -109.62807 10123 ft 306 kts 72°
2026-05-04 00:46 27.27159 -109.60451 10462 ft 327 kts 86°
2026-05-04 00:47 27.26962 -109.57844 10712 ft 346 kts 107°
2026-05-04 00:47 27.25986 -109.55321 11155 ft 357 kts 120°
2026-05-04 00:47 27.24798 -109.52823 11810 ft 365 kts 119°
2026-05-04 00:47 27.23579 -109.50288 12476 ft 372 kts 119°
2026-05-04 00:48 27.22356 -109.47744 13115 ft 379 kts 119°
2026-05-04 00:48 27.21070 -109.45063 13786 ft 387 kts 119°
2026-05-04 00:48 27.19786 -109.42379 14376 ft 392 kts 120°
2026-05-04 00:48 27.18491 -109.39672 15077 ft 394 kts 120°
2026-05-04 00:49 27.17204 -109.36976 15698 ft 399 kts 120°
2026-05-04 00:49 27.16086 -109.34086 16333 ft 406 kts 111°
2026-05-04 00:49 27.15351 -109.30999 16954 ft 413 kts 102°
2026-05-04 00:49 27.14850 -109.27791 17559 ft 418 kts 102°
2026-05-04 00:50 27.14334 -109.24547 18148 ft 424 kts 103°
2026-05-04 00:50 27.13816 -109.21321 18676 ft 428 kts 103°
2026-05-04 00:50 27.13281 -109.18007 19191 ft 433 kts 102°
2026-05-04 00:50 27.12741 -109.14659 19681 ft 438 kts 102°
2026-05-04 00:51 27.12195 -109.11275 20203 ft 443 kts 102°
2026-05-04 00:51 27.11639 -109.07839 20724 ft 448 kts 101°
2026-05-04 00:51 27.11079 -109.04380 21230 ft 452 kts 101°
2026-05-04 00:51 27.10510 -109.00882 21664 ft 459 kts 101°
2026-05-04 00:52 27.09931 -108.97329 22172 ft 464 kts 101°
2026-05-04 00:52 27.09348 -108.93746 22660 ft 469 kts 101°
2026-05-04 00:52 27.08759 -108.90126 23143 ft 475 kts 100°
2026-05-04 00:52 27.08169 -108.86501 23593 ft 480 kts 100°
2026-05-04 00:53 27.07566 -108.82800 24063 ft 482 kts 100°
2026-05-04 00:53 27.06959 -108.79085 24543 ft 484 kts 100°
2026-05-04 00:53 27.06345 -108.75346 24940 ft 488 kts 100°
2026-05-04 00:53 27.05726 -108.71586 25353 ft 491 kts 100°
2026-05-04 00:54 27.05100 -108.67801 25746 ft 495 kts 100°
2026-05-04 00:54 27.04475 -108.64039 26157 ft 498 kts 100°
2026-05-04 00:54 27.03842 -108.60206 26560 ft 502 kts 100°
2026-05-04 00:54 27.03205 -108.56353 26991 ft 504 kts 100°
2026-05-04 00:55 27.02563 -108.52464 27256 ft 510 kts 99°
2026-05-04 00:55 27.01912 -108.48536 27629 ft 512 kts 100°
2026-05-04 00:55 27.01259 -108.44608 28019 ft 514 kts 100°
2026-05-04 00:55 27.00599 -108.40644 28350 ft 519 kts 100°
2026-05-04 00:56 27.00157 -108.37994 28498 ft 523 kts 100°
2026-05-04 00:56 26.99476 -108.33925 28893 ft 525 kts 101°
2026-05-04 00:56 26.98806 -108.29936 29190 ft 529 kts 101°
2026-05-04 00:56 26.98122 -108.25869 29525 ft 532 kts 101°
2026-05-04 00:57 26.97433 -108.21783 29841 ft 534 kts 101°
2026-05-04 00:57 26.96739 -108.17690 30113 ft 537 kts 101°
2026-05-04 00:57 26.96042 -108.13566 30421 ft 538 kts 101°
2026-05-04 00:57 26.95344 -108.09428 30740 ft 539 kts 100°
2026-05-04 00:58 26.94654 -108.05296 31043 ft 540 kts 100°
2026-05-04 00:58 26.93952 -108.01149 31336 ft 542 kts 101°
2026-05-04 00:58 26.93247 -107.97009 31854 ft 539 kts 101°
2026-05-04 00:58 26.92544 -107.92888 32360 ft 536 kts 101°
2026-05-04 00:59 26.91842 -107.88794 32871 ft 533 kts 100°
2026-05-04 00:59 26.91145 -107.84721 33343 ft 532 kts 101°
2026-05-04 00:59 26.89707 -107.76325 33988 ft 535 kts 101°
2026-05-04 01:00 26.89002 -107.72227 34260 ft 534 kts 101°
2026-05-04 01:00 26.88309 -107.68197 34590 ft 532 kts 101°
2026-05-04 01:00 26.87608 -107.64134 34958 ft 530 kts 101°
2026-05-04 01:00 26.86905 -107.60066 35324 ft 529 kts 101°
2026-05-04 01:01 26.86204 -107.56020 35642 ft 529 kts 101°
2026-05-04 01:01 26.85502 -107.51974 35968 ft 528 kts 101°
2026-05-04 01:01 26.84802 -107.47946 36359 ft 525 kts 101°
2026-05-04 01:01 26.84112 -107.43977 36626 ft 525 kts 101°
2026-05-04 01:02 26.83413 -107.39966 36937 ft 523 kts 101°
2026-05-04 01:02 26.82014 -107.31960 37062 ft 522 kts 101°
2026-05-04 01:03 26.80614 -107.23982 37072 ft 522 kts 101°
2026-05-04 01:03 26.79217 -107.16049 37076 ft 522 kts 101°
2026-05-04 01:04 26.77807 -107.08071 37072 ft 522 kts 101°
2026-05-04 01:04 26.76390 -107.00093 37069 ft 523 kts 101°
2026-05-04 01:05 26.74978 -106.92145 37072 ft 522 kts 101°
2026-05-04 01:05 26.73559 -106.84190 37055 ft 521 kts 101°
2026-05-04 01:06 26.72134 -106.76232 37043 ft 521 kts 101°
2026-05-04 01:06 26.70704 -106.68270 37071 ft 522 kts 101°
2026-05-04 01:07 26.69267 -106.60303 37041 ft 522 kts 101°
2026-05-04 01:07 26.67833 -106.52378 37042 ft 522 kts 101°
2026-05-04 01:08 26.66402 -106.44451 37019 ft 524 kts 101°
2026-05-04 01:08 26.64940 -106.36444 37019 ft 523 kts 101°
2026-05-04 01:09 26.63474 -106.28448 37023 ft 530 kts 101°
2026-05-04 01:09 26.62010 -106.20447 37003 ft 527 kts 101°
2026-05-04 01:10 26.60529 -106.12393 37004 ft 529 kts 101°
2026-05-04 01:10 26.59047 -106.04356 36977 ft 528 kts 101°
2026-05-04 01:11 26.57556 -105.96282 36980 ft 532 kts 101°
2026-05-04 01:11 26.56063 -105.88240 36963 ft 533 kts 101°
2026-05-04 01:12 26.54549 -105.80124 36967 ft 528 kts 101°
2026-05-04 01:12 26.53051 -105.72120 36950 ft 529 kts 102°
2026-05-04 01:13 26.51540 -105.64066 36893 ft 529 kts 102°
2026-05-04 01:13 26.50042 -105.56115 36932 ft 519 kts 101°
2026-05-04 01:14 26.48555 -105.48234 36930 ft 522 kts 101°
2026-05-04 01:14 26.47050 -105.40283 36929 ft 522 kts 101°
2026-05-04 01:15 26.45544 -105.32354 36933 ft 522 kts 102°
2026-05-04 01:15 26.44044 -105.24483 36940 ft 521 kts 101°
2026-05-04 01:16 26.42532 -105.16576 36918 ft 520 kts 101°
2026-05-04 01:16 26.41019 -105.08687 36919 ft 519 kts 101°
2026-05-04 01:17 26.39514 -105.00859 36917 ft 518 kts 101°
2026-05-04 01:17 26.37996 -104.92993 36888 ft 518 kts 101°
2026-05-04 01:18 26.36470 -104.85107 36932 ft 523 kts 101°
2026-05-04 01:18 26.34931 -104.77178 36932 ft 521 kts 101°
2026-05-04 01:19 26.33389 -104.69263 36930 ft 522 kts 101°
2026-05-04 01:19 26.31851 -104.61390 36926 ft 522 kts 101°
2026-05-04 01:20 26.30301 -104.53479 36919 ft 522 kts 101°
2026-05-04 01:20 26.28747 -104.45575 36913 ft 522 kts 101°
2026-05-04 01:21 26.27186 -104.37655 36915 ft 522 kts 102°
2026-05-04 01:21 26.25631 -104.29793 36906 ft 522 kts 102°
2026-05-04 01:22 26.24062 -104.21883 36910 ft 522 kts 102°
2026-05-04 01:22 26.22485 -104.13952 36889 ft 523 kts 102°
2026-05-04 01:23 26.20913 -104.06078 36877 ft 524 kts 102°
2026-05-04 01:23 26.19322 -103.98131 36874 ft 524 kts 102°
2026-05-04 01:24 26.17743 -103.90266 36878 ft 522 kts 102°
2026-05-04 01:24 26.16154 -103.82380 36884 ft 523 kts 102°
2026-05-04 01:25 26.14559 -103.74478 36877 ft 523 kts 102°
2026-05-04 01:25 26.12959 -103.66577 36878 ft 523 kts 102°
2026-05-04 01:26 26.11362 -103.58713 36877 ft 523 kts 102°
2026-05-04 01:26 26.09751 -103.50809 36877 ft 523 kts 102°
2026-05-04 01:27 26.08146 -103.42961 36876 ft 523 kts 101°
2026-05-04 01:27 26.06529 -103.35065 36888 ft 523 kts 101°
2026-05-04 01:28 26.04907 -103.27173 36888 ft 523 kts 102°
2026-05-04 01:28 26.03293 -103.19347 36903 ft 523 kts 102°
2026-05-04 01:29 26.01662 -103.11459 36892 ft 523 kts 101°
2026-05-04 01:29 26.00035 -103.03615 36910 ft 523 kts 101°
2026-05-04 01:30 25.98397 -102.95736 36906 ft 523 kts 101°
2026-05-04 01:30 25.96755 -102.87864 36914 ft 519 kts 101°
2026-05-04 01:31 25.95131 -102.80093 36912 ft 520 kts 101°
2026-05-04 01:31 25.93488 -102.72259 36915 ft 519 kts 101°
2026-05-04 01:32 25.91844 -102.64444 36913 ft 519 kts 101°
2026-05-04 01:32 25.90204 -102.56667 36928 ft 519 kts 101°
2026-05-04 01:33 25.88550 -102.48850 36925 ft 519 kts 101°
2026-05-04 01:33 25.86893 -102.41036 36943 ft 519 kts 102°
2026-05-04 01:34 25.85232 -102.33231 36940 ft 519 kts 101°
2026-05-04 01:34 25.83576 -102.25466 36945 ft 520 kts 101°
2026-05-04 01:35 25.81904 -102.17649 36972 ft 520 kts 102°
2026-05-04 01:35 25.80512 -102.11157 36975 ft 521 kts 102°
2026-05-04 01:36 25.78827 -102.03320 37007 ft 521 kts 101°
2026-05-04 01:36 25.77133 -101.95463 36927 ft 523 kts 101°
2026-05-04 01:36 25.76295 -101.91584 36649 ft 522 kts 101°
2026-05-04 01:37 25.75449 -101.87675 36396 ft 518 kts 101°
2026-05-04 01:37 25.74605 -101.83778 35801 ft 519 kts 101°
2026-05-04 01:37 25.73758 -101.79870 35005 ft 522 kts 101°
2026-05-04 01:37 25.72913 -101.75976 34137 ft 527 kts 101°
2026-05-04 01:38 25.72052 -101.72014 33306 ft 529 kts 102°
2026-05-04 01:38 25.71186 -101.68033 32489 ft 529 kts 102°
2026-05-04 01:38 25.70320 -101.64060 31603 ft 531 kts 103°
2026-05-04 01:38 25.69452 -101.60079 30754 ft 532 kts 103°
2026-05-04 01:39 25.68581 -101.56093 30119 ft 528 kts 103°
2026-05-04 01:39 25.67720 -101.52160 29466 ft 522 kts 104°
2026-05-04 01:39 25.66877 -101.48313 28859 ft 515 kts 104°
2026-05-04 01:39 25.66034 -101.44475 28262 ft 509 kts 104°
2026-05-04 01:40 25.65200 -101.40683 27654 ft 504 kts 104°
2026-05-04 01:40 25.64371 -101.36923 27051 ft 498 kts 104°
2026-05-04 01:40 25.63552 -101.33206 26455 ft 494 kts 104°
2026-05-04 01:40 25.62738 -101.29521 25815 ft 491 kts 104°
2026-05-04 01:41 25.61944 -101.25927 25260 ft 486 kts 104°
2026-05-04 01:41 25.61141 -101.22289 24722 ft 483 kts 104°
2026-05-04 01:41 25.60345 -101.18691 24140 ft 480 kts 104°
2026-05-04 01:41 25.59553 -101.15108 23527 ft 477 kts 104°
2026-05-04 01:42 25.58776 -101.11606 22960 ft 470 kts 104°
2026-05-04 01:42 25.57999 -101.08108 22390 ft 465 kts 104°
2026-05-04 01:42 25.57231 -101.04652 21827 ft 460 kts 104°
2026-05-04 01:42 25.56467 -101.01217 21252 ft 456 kts 104°
2026-05-04 01:43 25.55712 -100.97825 20678 ft 451 kts 104°
2026-05-04 01:43 25.54975 -100.94491 20319 ft 441 kts 102°
2026-05-04 01:43 25.54605 -100.91159 19991 ft 430 kts 90°
2026-05-04 01:43 25.54619 -100.87889 19744 ft 418 kts 88°
2026-05-04 01:44 25.54659 -100.84674 19700 ft 419 kts 88°
2026-05-04 01:44 25.54696 -100.81469 19660 ft 422 kts 87°
2026-05-04 01:44 25.54728 -100.78216 19613 ft 421 kts 88°
2026-05-04 01:44 25.54755 -100.74970 19566 ft 421 kts 88°
2026-05-04 01:45 25.54778 -100.71731 19516 ft 421 kts 88°
2026-05-04 01:45 25.54800 -100.68496 19479 ft 421 kts 88°
2026-05-04 01:45 25.54841 -100.62070 19310 ft 419 kts 88°
2026-05-04 01:46 25.54861 -100.58827 19217 ft 419 kts 88°
2026-05-04 01:46 25.54879 -100.55597 19148 ft 420 kts 88°
2026-05-04 01:46 25.54896 -100.52364 19066 ft 420 kts 88°
2026-05-04 01:46 25.54912 -100.49125 19017 ft 420 kts 88°
2026-05-04 01:47 25.54928 -100.45934 18895 ft 420 kts 88°
2026-05-04 01:47 25.54944 -100.42695 18787 ft 416 kts 88°
2026-05-04 01:47 25.54958 -100.39496 18706 ft 416 kts 88°
2026-05-04 01:47 25.54973 -100.36278 18595 ft 419 kts 88°
2026-05-04 01:48 25.54985 -100.33067 18514 ft 416 kts 88°
2026-05-04 01:48 25.54998 -100.29882 18403 ft 407 kts 87°
2026-05-04 01:48 25.55080 -100.26876 18248 ft 387 kts 78°
2026-05-04 01:48 25.55836 -100.24080 17883 ft 365 kts 57°
2026-05-04 01:49 25.57315 -100.21949 17706 ft 346 kts 34°
2026-05-04 01:49 25.59268 -100.20451 17475 ft 340 kts 23°
2026-05-04 01:49 25.61345 -100.19204 17241 ft 341 kts 21°
2026-05-04 01:49 25.63426 -100.17959 17015 ft 337 kts 23°
2026-05-04 01:50 25.65462 -100.16669 16777 ft 337 kts 24°
2026-05-04 01:50 25.67442 -100.15350 16554 ft 338 kts 25°
2026-05-04 01:50 25.69454 -100.13969 16322 ft 337 kts 26°
2026-05-04 01:50 25.71440 -100.12586 16087 ft 336 kts 26°
2026-05-04 01:51 25.73422 -100.11200 15854 ft 335 kts 27°
2026-05-04 01:51 25.75372 -100.09835 15626 ft 335 kts 27°
2026-05-04 01:51 25.77322 -100.08470 15397 ft 334 kts 27°
2026-05-04 01:51 25.79295 -100.07090 15164 ft 333 kts 27°
2026-05-04 01:52 25.81252 -100.05721 15042 ft 331 kts 27°
2026-05-04 01:52 25.83201 -100.04357 15010 ft 332 kts 27°
2026-05-04 01:52 25.85168 -100.02981 15005 ft 333 kts 27°
2026-05-04 01:52 25.87111 -100.01619 14940 ft 325 kts 27°
2026-05-04 01:53 25.89005 -100.00380 14804 ft 304 kts 16°
2026-05-04 01:53 25.90943 -99.99904 14583 ft 278 kts 353°
2026-05-04 01:53 25.92781 -100.00277 14066 ft 266 kts 331°
2026-05-04 01:53 25.94295 -100.01407 13428 ft 259 kts 309°
2026-05-04 01:54 25.95323 -100.03021 13080 ft 257 kts 298°
2026-05-04 01:54 25.96270 -100.04709 12725 ft 257 kts 299°
2026-05-04 01:54 25.97213 -100.06361 12517 ft 251 kts 300°
2026-05-04 01:54 25.98146 -100.07991 12257 ft 242 kts 300°
2026-05-04 01:55 25.99026 -100.09524 12011 ft 231 kts 300°
2026-05-04 01:55 25.99885 -100.11027 11515 ft 231 kts 300°
2026-05-04 01:55 26.00744 -100.12535 11024 ft 231 kts 300°
2026-05-04 01:55 26.01576 -100.13996 10591 ft 229 kts 300°
2026-05-04 01:56 26.02430 -100.15492 10225 ft 221 kts 300°
2026-05-04 01:56 26.03229 -100.16889 10053 ft 207 kts 300°
2026-05-04 01:56 26.03975 -100.18196 9741 ft 198 kts 300°
2026-05-04 01:56 26.04705 -100.19520 9170 ft 202 kts 292°
2026-05-04 01:57 26.04855 -100.21020 8875 ft 197 kts 254°
2026-05-04 01:57 26.04225 -100.22393 8614 ft 206 kts 228°
2026-05-04 01:57 26.03110 -100.23309 8355 ft 198 kts 207°
2026-05-04 01:57 26.01923 -100.24039 7952 ft 198 kts 208°
2026-05-04 01:58 26.00738 -100.24819 7617 ft 197 kts 208°
2026-05-04 01:58 25.99580 -100.25600 7280 ft 199 kts 208°
2026-05-04 01:58 25.98391 -100.26410 7050 ft 194 kts 207°
2026-05-04 01:58 25.97234 -100.27196 7020 ft 197 kts 206°
2026-05-04 01:59 25.96065 -100.27984 6962 ft 199 kts 207°
2026-05-04 01:59 25.94871 -100.28785 6855 ft 198 kts 206°
2026-05-04 01:59 25.93697 -100.29572 6517 ft 197 kts 206°
2026-05-04 01:59 25.92543 -100.30352 6098 ft 195 kts 206°
2026-05-04 02:00 25.91375 -100.31139 5623 ft 196 kts 204°
2026-05-04 02:00 25.90151 -100.31639 5117 ft 183 kts 175°
2026-05-04 02:00 25.89005 -100.31210 4748 ft 169 kts 135°
2026-05-04 02:00 25.88363 -100.30155 4383 ft 167 kts 117°
2026-05-04 02:01 25.87822 -100.29018 4132 ft 163 kts 118°
2026-05-04 02:01 25.87277 -100.27921 3865 ft 164 kts 120°
2026-05-04 02:01 25.86714 -100.26842 3723 ft 159 kts 122°
2026-05-04 02:01 25.86136 -100.25769 3713 ft 162 kts 123°
2026-05-04 02:02 25.85544 -100.24689 3715 ft 165 kts 122°
2026-05-04 02:02 25.84946 -100.23607 3649 ft 162 kts 122°
2026-05-04 02:02 25.84372 -100.22570 3385 ft 158 kts 121°
2026-05-04 02:02 25.83794 -100.21530 3312 ft 161 kts 121°
2026-05-04 02:03 25.83220 -100.20492 3288 ft 150 kts 121°
2026-05-04 02:03 25.82723 -100.19575 3143 ft 131 kts 122°
2026-05-04 02:03 25.82250 -100.18707 2789 ft 129 kts 122°
2026-05-04 02:03 25.81772 -100.17832 2612 ft 136 kts 121°
2026-05-04 02:04 25.81286 -100.16945 2435 ft 134 kts 121°
2026-05-04 02:04 25.80813 -100.16077 2244 ft 130 kts 122°
2026-05-04 02:04 25.80326 -100.15193 2096 ft 139 kts 121°
2026-05-04 02:04 25.79822 -100.14286 1903 ft 136 kts 121°
2026-05-04 02:05 25.79330 -100.13384 1711 ft 135 kts 120°
2026-05-04 02:05 25.78846 -100.12485 1472 ft 138 kts 123°
2026-05-04 02:05 25.78345 -100.11584 1298 ft 134 kts 123°
2026-05-04 02:05 25.77903 -100.10789 1270 ft 102 kts 121°
2026-05-04 02:06 25.77637 -100.10308 1266 ft 49 kts 121°
2026-05-04 02:06 25.77465 -100.09992 1262 ft 46 kts 121°
2026-05-04 02:06 25.77325 -100.09737 1260 ft 17 kts 121°
2026-05-04 02:06 25.77232 -100.09710 1259 ft 17 kts 216°
2026-05-04 02:07 25.77154 -100.09775 1260 ft 12 kts 231°
2026-05-04 02:07 25.77170 -100.09855 1267 ft 12 kts 302°
2026-05-04 02:07 25.77219 -100.09940 1265 ft 14 kts 301°
2026-05-04 02:07 25.77274 -100.10042 1260 ft 16 kts 301°
2026-05-04 02:08 25.77336 -100.10155 1263 ft 18 kts 301°
2026-05-04 02:08 25.77403 -100.10278 1266 ft 19 kts 301°
2026-05-04 02:08 25.77474 -100.10407 1270 ft 20 kts 301°
2026-05-04 02:08 25.77545 -100.10535 1275 ft 19 kts 301°
2026-05-04 02:09 25.77617 -100.10667 1276 ft 21 kts 301°
2026-05-04 02:09 25.77694 -100.10808 1272 ft 21 kts 301°
2026-05-04 02:09 25.77767 -100.10939 1272 ft 18 kts 301°
2026-05-04 02:09 25.77825 -100.11044 1273 ft 16 kts 302°
2026-05-04 02:10 25.77884 -100.11151 1274 ft 13 kts 301°
2026-05-04 02:10 25.77929 -100.11234 1275 ft 12 kts 300°
2026-05-04 02:10 25.77947 -100.11282 1276 ft 4 kts 257°
2026-05-04 02:10 25.77916 -100.11309 1276 ft 7 kts 211°
2026-05-04 02:11 25.77876 -100.11335 1276 ft 4 kts 211°